TimeMST,TemperatureF,Dew PointF,Humidity,Sea Level PressureIn,VisibilityMPH,Wind Direction,Wind SpeedMPH,Gust SpeedMPH,PrecipitationIn,Events,Conditions,WindDirDegrees,DateUTC
12:58 AM,24.8,24.8,100,30.28,10.0,East,5.8,-,N/A,,Clear,90,2012-11-27 07:58:00
1:58 AM,23.9,23.9,100,30.28,10.0,NE,6.9,-,N/A,,Clear,50,2012-11-27 08:58:00
2:58 AM,24.3,24.3,100,30.28,10.0,NE,8.1,-,N/A,,Clear,50,2012-11-27 09:58:00
3:58 AM,23.2,23.2,100,30.29,10.0,ENE,6.9,-,N/A,,Clear,60,2012-11-27 10:58:00
4:58 AM,23.0,23.0,100,30.29,10.0,NE,5.8,-,N/A,,Clear,50,2012-11-27 11:58:00
5:58 AM,23.9,23.9,100,30.31,10.0,ENE,6.9,-,N/A,,Clear,60,2012-11-27 12:58:00
6:58 AM,23.7,23.7,100,30.32,10.0,ENE,6.9,-,N/A,,Clear,70,2012-11-27 13:58:00
7:58 AM,22.5,22.3,99,30.33,10.0,SE,4.6,-,N/A,,Clear,130,2012-11-27 14:58:00
8:58 AM,24.8,24.8,100,30.35,10.0,ESE,4.6,-,N/A,,Clear,110,2012-11-27 15:58:00
9:58 AM,31.3,31.3,100,30.33,10.0,East,9.2,-,N/A,,Clear,100,2012-11-27 16:58:00
10:58 AM,36.0,34.5,94,30.31,10.0,ESE,15.0,-,N/A,,Clear,110,2012-11-27 17:58:00
11:58 AM,39.2,31.5,74,30.30,10.0,ESE,13.8,-,N/A,,Partly Cloudy,120,2012-11-27 18:58:00
12:58 PM,43.2,29.5,59,30.26,10.0,East,13.8,-,N/A,,Clear,100,2012-11-27 19:58:00
1:58 PM,45.3,29.8,55,30.24,10.0,SE,10.4,-,N/A,,Clear,130,2012-11-27 20:58:00
2:58 PM,46.2,30.2,54,30.24,10.0,South,5.8,-,N/A,,Mostly Cloudy,170,2012-11-27 21:58:00
3:58 PM,43.2,32.4,66,30.23,10.0,West,5.8,-,N/A,,Mostly Cloudy,260,2012-11-27 22:58:00
4:58 PM,39.2,33.1,79,30.24,10.0,WNW,5.8,-,N/A,,Mostly Cloudy,300,2012-11-27 23:58:00
5:58 PM,35.2,34.2,96,30.24,10.0,NW,4.6,-,N/A,,Mostly Cloudy,320,2012-11-28 00:58:00
6:58 PM,31.8,31.8,100,30.25,10.0,Calm,Calm,-,N/A,,Mostly Cloudy,0,2012-11-28 01:58:00
7:58 PM,30.2,30.2,100,30.25,10.0,NNE,1.2,-,N/A,,Partly Cloudy,30,2012-11-28 02:58:00
8:58 PM,28.6,28.6,100,30.25,10.0,ENE,1.2,-,N/A,,Clear,70,2012-11-28 03:58:00
9:58 PM,27.1,27.1,100,30.24,10.0,East,2.3,-,N/A,,Clear,100,2012-11-28 04:58:00
10:58 PM,26.6,26.6,100,30.24,10.0,ENE,4.6,-,N/A,,Partly Cloudy,70,2012-11-28 05:58:00
11:58 PM,26.4,26.4,100,30.23,10.0,East,4.6,-,N/A,,Scattered Clouds,90,2012-11-28 06:58:00